Location: Asheville, NC
(35.6000°N, 82.5500°W)
Time: 21:07:43
(UTC-05:00)

N. Korean satellite - Pass Details

Date: 09 December 2017
Orbit: 458 x 515 km, 97.2° (Epoch: 20 January)

Event Time Altitude Azimuth Distance (km) Brightness Sun altitude
Rises 06:12:08 0° 35° (NE) 2,623 10.5 -15.1°
Reaches altitude 10° 06:15:15 10° 64° (ENE) 1,722 10.0 -14.5°
Maximum altitude 06:17:02 13° 93° (E) 1,529 10.3 -14.1°
Drops below altitude 10° 06:18:48 10° 121° (ESE) 1,703 10.7 -13.8°
Sets 06:21:50 0° 150° (SSE) 2,566 11.0 -13.2°
